TimeEDT,TemperatureF,Dew PointF,Humidity,Sea Level PressureIn,VisibilityMPH,Wind Direction,Wind SpeedMPH,Gust SpeedMPH,PrecipitationIn,Events,Conditions,WindDirDegrees,DateUTC
12:15 AM,64.4,55.4,73,29.71,10.0,South,17.3,28.8,N/A,,Mostly Cloudy,190,2013-11-01 04:15:00
12:35 AM,64.4,55.4,73,29.70,10.0,South,13.8,27.6,N/A,,Mostly Cloudy,190,2013-11-01 04:35:00
12:55 AM,64.4,55.4,73,29.71,10.0,SSW,19.6,28.8,N/A,,Overcast,200,2013-11-01 04:55:00
1:15 AM,64.4,57.2,77,29.72,10.0,SSW,21.9,31.1,N/A,Rain,Rain,200,2013-11-01 05:15:00
2:15 AM,60.8,60.8,100,29.72,10.0,SSW,11.5,-,0.01,,Light Drizzle,200,2013-11-01 06:15:00
5:35 AM,57.2,57.2,100,29.74,4.0,WSW,12.7,25.3,0.20,Rain,Light Rain,250,2013-11-01 09:35:00
5:55 AM,57.2,57.2,100,29.75,10.0,WSW,10.4,-,0.20,,Overcast,250,2013-11-01 09:55:00
6:15 AM,57.2,57.2,100,29.75,10.0,West,12.7,18.4,N/A,Rain,Light Rain,260,2013-11-01 10:15:00
6:35 AM,57.2,57.2,100,29.76,10.0,West,6.9,10.4,N/A,Rain,Light Rain,260,2013-11-01 10:35:00
6:55 AM,57.2,57.2,100,29.78,10.0,West,5.8,-,0.01,Rain,Light Rain,260,2013-11-01 10:55:00
7:15 AM,55.4,55.4,100,29.79,10.0,WSW,4.6,-,N/A,,Overcast,250,2013-11-01 11:15:00
7:35 AM,55.4,55.4,100,29.80,10.0,SSW,4.6,-,N/A,,Overcast,210,2013-11-01 11:35:00
7:55 AM,53.6,53.6,100,29.80,10.0,South,3.5,-,N/A,,Mostly Cloudy,190,2013-11-01 11:55:00
8:15 AM,53.6,53.6,100,29.81,10.0,SW,4.6,-,N/A,,Mostly Cloudy,230,2013-11-01 12:15:00
8:35 AM,55.4,55.4,100,29.81,10.0,WSW,4.6,-,N/A,,Overcast,240,2013-11-01 12:35:00
8:55 AM,55.4,55.4,100,29.82,10.0,SSW,6.9,-,N/A,,Overcast,210,2013-11-01 12:55:00
9:15 AM,55.4,55.4,100,29.83,10.0,SW,5.8,-,N/A,,Overcast,230,2013-11-01 13:15:00
9:35 AM,55.4,55.4,100,29.84,10.0,SSW,6.9,-,N/A,,Overcast,210,2013-11-01 13:35:00
9:55 AM,57.2,57.2,100,29.84,10.0,SSW,8.1,-,N/A,,Mostly Cloudy,200,2013-11-01 13:55:00
10:15 AM,59.0,57.2,94,29.83,10.0,SW,8.1,-,N/A,,Mostly Cloudy,220,2013-11-01 14:15:00
10:35 AM,59.0,55.4,88,29.83,10.0,SW,10.4,-,N/A,,Mostly Cloudy,220,2013-11-01 14:35:00
10:55 AM,60.8,51.8,72,29.82,10.0,SW,10.4,21.9,0.01,,Clear,220,2013-11-01 14:55:00
11:15 AM,60.8,53.6,77,29.82,10.0,SW,11.5,18.4,N/A,,Scattered Clouds,220,2013-11-01 15:15:00
11:35 AM,60.8,51.8,72,29.81,10.0,SW,11.5,-,N/A,,Scattered Clouds,220,2013-11-01 15:35:00
11:55 AM,62.6,51.8,68,29.82,10.0,SW,12.7,17.3,N/A,,Mostly Cloudy,220,2013-11-01 15:55:00
12:15 PM,62.6,51.8,68,29.81,10.0,SSW,12.7,-,N/A,,Scattered Clouds,210,2013-11-01 16:15:00
12:35 PM,62.6,50.0,63,29.81,10.0,SW,11.5,20.7,N/A,,Scattered Clouds,230,2013-11-01 16:35:00
12:55 PM,62.6,50.0,63,29.80,10.0,SSW,11.5,20.7,N/A,,Scattered Clouds,210,2013-11-01 16:55:00
1:15 PM,62.6,50.0,63,29.79,10.0,SSW,10.4,17.3,N/A,,Mostly Cloudy,210,2013-11-01 17:15:00
1:35 PM,64.4,50.0,59,29.78,10.0,SSW,11.5,18.4,N/A,,Scattered Clouds,210,2013-11-01 17:35:00
1:55 PM,64.4,50.0,59,29.77,10.0,WSW,17.3,-,N/A,,Scattered Clouds,240,2013-11-01 17:55:00
2:15 PM,64.4,50.0,59,29.77,10.0,SSW,11.5,17.3,N/A,,Clear,210,2013-11-01 18:15:00
2:35 PM,64.4,48.2,56,29.76,10.0,SW,10.4,17.3,N/A,,Clear,220,2013-11-01 18:35:00
2:55 PM,64.4,48.2,56,29.75,10.0,SSW,9.2,-,N/A,,Clear,210,2013-11-01 18:55:00
3:15 PM,64.4,48.2,56,29.75,10.0,SW,12.7,17.3,N/A,,Scattered Clouds,230,2013-11-01 19:15:00
3:35 PM,64.4,46.4,52,29.75,10.0,SW,11.5,-,N/A,,Clear,220,2013-11-01 19:35:00
3:55 PM,64.4,46.4,52,29.75,10.0,SW,11.5,16.1,N/A,,Clear,220,2013-11-01 19:55:00
4:15 PM,64.4,46.4,52,29.75,10.0,WSW,10.4,-,N/A,,Clear,240,2013-11-01 20:15:00
6:15 PM,60.8,44.6,55,29.76,10.0,SW,8.1,-,N/A,,Overcast,230,2013-11-01 22:15:00
6:35 PM,59.0,44.6,59,29.77,10.0,SSW,4.6,-,N/A,,Mostly Cloudy,210,2013-11-01 22:35:00
6:55 PM,59.0,44.6,59,29.77,10.0,SW,5.8,-,N/A,,Mostly Cloudy,220,2013-11-01 22:55:00
7:15 PM,59.0,44.6,59,29.78,10.0,WNW,3.5,-,N/A,,Overcast,300,2013-11-01 23:15:00
7:35 PM,57.2,42.8,59,29.79,10.0,WNW,3.5,-,N/A,,Mostly Cloudy,300,2013-11-01 23:35:00
7:55 PM,55.4,42.8,63,29.80,10.0,WNW,3.5,-,N/A,,Scattered Clouds,290,2013-11-01 23:55:00
8:15 PM,53.6,42.8,67,29.80,10.0,WSW,3.5,-,N/A,,Scattered Clouds,240,2013-11-02 00:15:00
8:35 PM,51.8,42.8,71,29.81,10.0,WSW,4.6,-,N/A,,Scattered Clouds,250,2013-11-02 00:35:00
8:55 PM,53.6,41.0,62,29.81,10.0,WSW,4.6,-,N/A,,Mostly Cloudy,250,2013-11-02 00:55:00
9:15 PM,53.6,41.0,62,29.81,10.0,WSW,4.6,-,N/A,,Mostly Cloudy,250,2013-11-02 01:15:00
9:35 PM,51.8,41.0,67,29.81,10.0,WSW,3.5,-,N/A,,Scattered Clouds,250,2013-11-02 01:35:00
9:55 PM,51.8,41.0,67,29.82,10.0,West,5.8,-,N/A,,Scattered Clouds,270,2013-11-02 01:55:00
10:15 PM,53.6,42.8,67,29.82,10.0,West,4.6,-,N/A,,Scattered Clouds,270,2013-11-02 02:15:00
10:35 PM,50.0,41.0,71,29.83,10.0,SW,3.5,-,N/A,,Scattered Clouds,230,2013-11-02 02:35:00
10:55 PM,48.2,41.0,76,29.83,10.0,SW,5.8,-,N/A,,Scattered Clouds,230,2013-11-02 02:55:00
11:15 PM,48.2,41.0,76,29.83,10.0,SSW,5.8,-,N/A,,Clear,210,2013-11-02 03:15:00
11:35 PM,48.2,41.0,76,29.83,10.0,SW,6.9,-,N/A,,Clear,220,2013-11-02 03:35:00
11:55 PM,50.0,41.0,71,29.83,10.0,SW,9.2,-,N/A,,Clear,230,2013-11-02 03:55:00